sat.trackr.live / text

‹ back to catalog

GITAI-SC1

NORAD 62388 · 2024-247M

PAYLOAD ACTIVE UNKNOWN

§ Identity

Operator
Country
US
Launch date
2024-12-21
Launch site
AFWTR
Launch vehicle
Mass (kg)
RCS (m²)

External: N2YO · Heavens-Above · Gunter

§ Orbital elements

Epoch: 2026-05-25T04:45:21.640032Z

Period
94.67 min
Inclination
45.0015°
Eccentricity
0.0000597
Mean motion
15.21095480 rev/d
Perigee alt
502.1 km
Apogee alt
502.9 km
Semi-major
6,880.7 km
B*
2.3637e-4
RAAN
75.9221°
Arg perigee
283.5182°
Mean anomaly
76.5632°
Rev number
7,923

§ Raw data

GITAI-SC11 62388U 24247M   26145.19816713  .00005077  00000+0  23637-3 0  99922 62388  45.0015  75.9221 0000597 283.5182  76.5632 15.21095480 79235

JSON: /api/v1/satellites/62388 · /tle

For live sub-satellite position, see the globe view (requires WebGL).

§ Visibility from observer

Set your observer location to see the next 7 days of passes ≥ 10°. The values pass through the URL so the page stays shareable.

No JS? Fill the form by hand. The geolocation button needs JavaScript.

§ Radio — SatNOGS DB

ModeDescriptionDownlinkUplink
FSK Mode S - FSK 32Kbps - Transmitter 2.264 GHz
QPSK Mode X - QPSK 4Mbps 8.200 GHz

2 transmitters · refreshed weekly from db.satnogs.org